Location: Shenandoah County Park
(38.9356°N, 78.4524°W)
Time: 21:43:35
(UTC-05:00)

Tiros 1 - Visible Passes

Search period start: 30 November 2023 00:00
Search period end: 10 December 2023 00:00
Orbit: 626 x 659 km, 48.4° (Epoch: 30 November)

Date Brightness Start Highest point End Pass type
(mag) Time Alt. Az. Time Alt. Az. Time Alt. Az.
30 Nov 10.1 04:07:37 10° SE 04:08:42 11° SE 04:09:49 10° ESE visible
30 Nov 7.6 05:45:22 10° SW 05:50:05 62° SE 05:54:49 10° ENE visible
01 Dec 9.0 04:32:00 24° SSE 04:32:50 25° SE 04:36:46 10° E visible
01 Dec 7.2 06:09:53 10° WSW 06:14:39 68° NNW 06:19:26 10° NE visible
02 Dec 7.7 04:56:32 50° S 04:57:09 55° SE 05:01:50 10° ENE visible
02 Dec 7.7 06:34:53 10° W 06:39:25 41° NNW 06:43:57 10° NE visible
03 Dec 10.2 03:43:10 12° E 03:43:10 12° E 03:43:38 10° E visible
03 Dec 7.0 05:20:46 57° W 05:21:41 76° NNW 05:26:29 10° NE visible
04 Dec 9.6 04:07:13 20° ENE 04:07:13 20° ENE 04:08:49 10° ENE visible
04 Dec 7.6 05:44:49 33° WNW 05:46:24 44° NNW 05:51:00 10° NE visible
05 Dec 8.8 04:31:07 29° NE 04:31:07 29° NE 04:33:30 10° ENE visible
05 Dec 8.2 06:08:42 19° WNW 06:11:18 31° NNW 06:15:33 10° NE visible
06 Dec 8.3 04:54:53 35° NNE 04:54:53 35° NNE 04:58:01 10° NE visible
06 Dec 8.5 06:32:28 11° WNW 06:36:18 26° N 06:40:20 10° NE visible
07 Dec 8.2 05:18:33 32° N 05:18:33 32° N 05:22:33 10° NE visible
08 Dec 10.0 04:04:35 12° NE 04:04:35 12° NE 04:05:01 10° NE visible
08 Dec 8.4 05:42:09 24° NNW 05:43:12 27° N 05:47:16 10° NE visible
09 Dec 9.5 04:28:08 18° NE 04:28:08 18° NE 04:29:31 10° NE visible
09 Dec 8.5 06:05:42 17° NW 06:08:14 26° N 06:12:16 10° ENE visible
